Tiempo atmosférico en la estación meteorológica de Frontera, Sabinosa, Santa Cruz de Tenerife (20 m.)



Fecha
DESCASC
Temp. máxima en grados centígrados (hora)
DESCASC
Temp. mínima en grados centígrados (hora)
DESCASC
Temp. media en grados centígrados
DESCASC
Racha de viento máxima en m/sg (hora)
DESCASC
Velocidad máxima media en intervalos de 10 minutos(hora)
DESCASC
Precipitaciones diarias en mm
DESCASC
Precipitaciones de 00:00 a 06:00 en mm
DESCASC
Precipitaciones de 06:00 a 12:00 en mm
DESCASC
Precipitaciones de 12:00 a 18:00 en mm
DESCASC
Precipitaciones de 18:00 a 24:00 en mm
DESCASC
20-09-2018 25.4 (14:40) 23 (06:40) 24.2 7.22 (00:40) 4.44 (00:40) 0 0 0 0 0
19-09-2018 26.6 (15:20) 21.2 (08:30) 23.9 8.61 (02:50) 6.39 (02:50) 0 0 0 0 0
18-09-2018 25.8 (11:20) 20.3 (03:00) 23 7.5 (20:30) 4.72 (21:20) 0 0 0 0 0
17-09-2018 25.4 (15:10) 20.9 (05:50) 23.1 6.67 (14:00) 4.17 (14:00) 0 0 0 0 0
16-09-2018 24.8 (15:30) 21.4 (00:00) 23.1 8.61 (04:50) 5.83 (05:00) 0 0 0 0 0
15-09-2018 26.6 (15:10) 22.7 (00:00) 24.7 8.61 (09:20) 5.28 (11:00) 0 0 0 0 0
14-09-2018 28.3 (13:50) 21.9 (00:00) 25.1 6.11 (22:50) 3.61 (03:40) 0 0 0 0 0
13-09-2018 29.8 (16:50) 23.8 (00:00) 26.8 7.22 (02:10) 4.72 (02:00) 0 0 0 0 0
12-09-2018 26.5 (13:00) 22.3 (00:00) 24.4 12.22 (12:00) 6.67 (12:00) 0 0 0 0 0
11-09-2018 27.5 (14:40) 21.4 (00:00) 24.4 10 (21:30) 6.39 (21:40) 0 0 0 0 0
10-09-2018 26.3 (13:30) 20.8 (00:00) 23.5 10.28 (15:30) 5.83 (02:10) 0 0 0 0 0
09-09-2018 24.8 (16:50) 20.9 (00:00) 22.8 9.17 (13:40) 5.83 (13:40) 0 0 0 0 0
08-09-2018 26.1 (15:00) 20.4 (00:00) 23.3 8.61 (10:50) 5.56 (23:00) 0 0 0 0 0
07-09-2018 25.9 (12:40) 19.8 (00:00) 22.8 7.78 (15:10) 5.28 (15:10) 0 0 0 0 0
06-09-2018 25.1 (12:50) 21.5 (00:00) 23.3 10.28 (14:50) 5.83 (14:10) 0.8 0.8 0 0 0
05-09-2018 26.5 (18:00) 21.3 (00:00) 23.9 9.72 (16:20) 6.11 (12:00) 0 0 0 0 0
04-09-2018 27.4 (14:10) 21.1 (00:00) 24.3 9.17 (18:10) 5 (19:50) 0 0 0 0 0
03-09-2018 26.7 (15:20) 21.3 (00:00) 24 10 (15:10) 5 (15:10) 0 0 0 0 0
02-09-2018 26.9 (15:50) 21.2 (00:00) 24.1 7.78 (12:50) 5 (22:30) 0 0 0 0 0
01-09-2018 25.6 (16:00) 21.5 (00:00) 23.6 8.33 (03:00) 6.11 (07:20) 0 0 0 0 0
31-08-2018 26.2 (14:10) 21.6 (00:00) 23.9 11.39 (14:00) 6.67 (14:00) 0 0 0 0 0
30-08-2018 25.9 (13:00) 22.3 (00:00) 24.1 12.78 (12:50) 6.67 (04:20) 0 0 0 0 0
29-08-2018 26.9 (14:30) 21.8 (00:00) 24.3 14.72 (23:00) 7.78 (11:50) 0 0 0 0 0
28-08-2018 28 (14:50) 20.5 (00:00) 24.3 10.28 (16:40) 6.11 (22:00) 0 0 0 0 0
27-08-2018 26 (12:30) 20.5 (00:00) 23.3 10.28 (13:20) 5.28 (13:20) 0 0 0 0 0
26-08-2018 24.6 (17:10) 22.7 (00:00) 23.7 8.61 (14:40) 5.28 (12:00) 0 0 0 0 0
25-08-2018 27 (14:00) 21 (00:00) 24 5.83 (23:30) 3.61 (12:20) 0 0 0 0 0
24-08-2018 26.8 (16:30) 22.1 (00:00) 24.4 7.5 (21:30) 4.17 (13:50) 0 0 0 0 0

Gráficas

Temp. máximas Temp. mínimas Temp. medias Precipitaciones Rachas de viento máximas Velocidades máximas media en intervalos de 10 minutos

Datos horarios

Fecha y hora oficial Temperatura (ºC) Velocidad del viento (km/h) Dirección del viento Racha (km/h) Dirección de racha Precipitación (mm) Presión (hPa) Tendencia (hPa) Humedad (%)
2018-09-22 23:00:00 23.1 8 Sudeste 22 Sudeste 0 -- -- 72
2018-09-22 22:00:00 23.3 8 Sudeste 26 Este 0 -- -- 71
2018-09-22 21:00:00 23.6 9 Sudeste 22 Este 0 -- -- 71
2018-09-22 20:00:00 24.2 11 Sudeste 24 Sudeste 0 -- -- 68
2018-09-22 19:00:00 25.3 12 Este 18 Este 0 -- -- 68
2018-09-22 18:00:00 26.3 12 Este 19 Este 0 -- -- 63
2018-09-22 17:00:00 26.1 11 Este 22 Este 0 -- -- 64
2018-09-22 16:00:00 25.4 10 Este 26 Nordeste 0 -- -- 66
2018-09-22 15:00:00 25.4 11 Nordeste 26 Nordeste 0 -- -- 65
2018-09-22 14:00:00 25.4 12 Nordeste 29 Nordeste 0 -- -- 65
2018-09-22 13:00:00 24.8 16 Nordeste 31 Nordeste 0 -- -- 66
2018-09-22 12:00:00 24.7 13 Nordeste 23 Nordeste 0 -- -- 66
2018-09-22 11:00:00 24.8 8 Este 18 Nordeste 0 -- -- 68
2018-09-22 10:00:00 23.9 7 Nordeste 14 Este 0 -- -- 68
2018-09-22 09:00:00 23.3 3 Este 14 Sudeste 0 -- -- 70
2018-09-22 08:00:00 22.1 11 Sudeste 24 Nordeste 0 -- -- 69
2018-09-22 07:00:00 22.5 15 Este 27 Este 0 -- -- 73
2018-09-22 06:00:00 22.3 8 Sudeste 23 Sudeste 0 -- -- 73
2018-09-22 05:00:00 21.9 13 Sudeste 23 Sudeste 0 -- -- 70
2018-09-22 04:00:00 22 14 Sur 24 Sudeste 0 -- -- 70
2018-09-22 03:00:00 22.1 8 Sudeste 14 Este 0 -- -- 73
2018-09-22 02:00:00 21.9 5 Sudeste 13 Sur 0 -- -- 73
2018-09-22 01:00:00 22.3 7 Sudeste 23 Este 0 -- -- 73
2018-09-22 00:00:00 22.9 14 Nordeste 23 Nordeste 0 -- -- 77
2018-09-21 23:00:00 22.8 8 Este 22 Este 0 -- -- 75
2018-09-21 22:00:00 22.7 7 Sudeste 20 Este 0 -- -- 72
2018-09-21 21:00:00 23 5 Este 14 Sudeste 0 -- -- 73
2018-09-21 20:00:00 23.3 6 Sudeste 18 Sudeste 0 -- -- 71
2018-09-21 19:00:00 24.2 9 Este 17 Este 0 -- -- 70
2018-09-21 18:00:00 24.4 12 Este 18 Nordeste 0 -- -- 73
2018-09-21 17:00:00 24.6 9 Nordeste 24 Nordeste 0 -- -- 73
2018-09-21 16:00:00 24.6 12 Nordeste 21 Nordeste 0 -- -- 73
2018-09-21 15:00:00 24.8 10 Nordeste 22 Nordeste 0 -- -- 69
2018-09-21 14:00:00 23.9 12 Nordeste 26 Nordeste 0 -- -- 73
2018-09-21 13:00:00 23.9 16 Nordeste 26 Nordeste 0 -- -- 77
2018-09-21 12:00:00 24.3 14 Nordeste 28 Nordeste 0 -- -- 77
2018-09-21 11:00:00 25.4 4 Sudeste 13 Sudeste 0 -- -- 66
2018-09-21 10:00:00 24.7 5 Norte 12 Oeste 0 -- -- 69
2018-09-21 09:00:00 22.9 6 Oeste 14 Sudoeste 0 -- -- 76
2018-09-21 08:00:00 21.8 4 Sur 17 Norte 0 -- -- 79
2018-09-21 07:00:00 21.7 4 Oeste 9 Noroeste 0 -- -- 82
2018-09-21 06:00:00 22.6 4 Nordeste 24 Nordeste 0 -- -- 80
2018-09-21 05:00:00 22.5 8 Noroeste 15 Nordeste 0 -- -- 82
2018-09-21 04:00:00 22.6 5 Noroeste 15 Noroeste 0 -- -- 80
2018-09-21 03:00:00 22.2 4 Sudeste 13 Oeste 0 -- -- 78
2018-09-21 02:00:00 22.9 6 Sudoeste 26 Nordeste 0 -- -- 78
2018-09-21 01:00:00 23.1 4 Sur 18 Sudeste 0 -- -- 78
2018-09-21 00:00:00 23.4 4 Sudeste 23 Este 0 -- -- 77
2018-09-20 23:00:00 23.7 10 Sudeste 15 Sudeste 0 -- -- 76
2018-09-20 22:00:00 23.8 8 Este 18 Sudeste 0 -- -- 74
2018-09-20 21:00:00 24 9 Sudeste 18 Sudeste 0 -- -- 74
2018-09-20 20:00:00 24.2 9 Sudeste 20 Este 0 -- -- 76
2018-09-20 19:00:00 24.6 10 Este 17 Este 0 -- -- 76
2018-09-20 18:00:00 24.8 5 Este 18 Nordeste 0 -- -- 74
2018-09-20 17:00:00 25 8 Nordeste 14 Nordeste 0 -- -- 76
2018-09-20 16:00:00 25.3 6 Este 17 Este 0 -- -- 74
2018-09-20 15:00:00 25.3 7 Nordeste 15 Nordeste 0 -- -- 73
2018-09-20 14:00:00 24.9 9 Nordeste 18 Nordeste 0 -- -- 76
2018-09-20 13:00:00 24.3 11 Nordeste 19 Nordeste 0 -- -- 79
2018-09-20 12:00:00 24.3 10 Nordeste 23 Nordeste 0 -- -- 80
2018-09-20 11:00:00 24.5 7 Nordeste 12 Este 0 -- -- 77
2018-09-20 10:00:00 24 6 Nordeste 8 Nordeste 0 -- -- 80
2018-09-20 09:00:00 23.9 3 Noroeste 6 Nordeste 0 -- -- 82
2018-09-20 08:00:00 23 3 Nordeste 21 Nordeste 0 -- -- 84
2018-09-20 07:00:00 23.1 14 Nordeste 20 Nordeste 0 -- -- 85
2018-09-20 06:00:00 23.1 5 Norte 12 Norte 0 -- -- 83
2018-09-20 05:00:00 23.2 5 Noroeste 23 Norte 0 -- -- 82
2018-09-20 04:00:00 23.4 9 Norte 15 Noroeste 0 -- -- 83
2018-09-20 03:00:00 23.4 3 Noroeste 14 Noroeste 0 -- -- 82
2018-09-20 02:00:00 23.5 6 Norte 17 Nordeste 0 -- -- 82
2018-09-20 01:00:00 23.6 11 Nordeste 26 Nordeste 0 -- -- 83
2018-09-20 00:00:00 23.4 6 Sudeste 16 Nordeste 0 -- -- 80
2018-09-19 23:00:00 23.7 5 Sudeste 21 Nordeste 0 -- -- 76
2018-09-19 22:00:00 24.1 8 Este 15 Sudeste 0 -- -- 78
2018-09-19 21:00:00 24.2 10 Este 20 Nordeste 0 -- -- 77
2018-09-19 20:00:00 24.5 8 Este 23 Nordeste 0 -- -- 76
2018-09-19 19:00:00 24.7 10 Este 22 Nordeste 0 -- -- 77
2018-09-19 18:00:00 25.5 11 Nordeste 17 Nordeste 0 -- -- 74
2018-09-19 17:00:00 26.1 6 Norte 9 Norte 0 -- -- 70
2018-09-19 16:00:00 26.3 5 Norte 9 Este 0 -- -- 69
2018-09-19 15:00:00 26.1 6 Nordeste 8 Nordeste 0 -- -- 69
2018-09-19 14:00:00 26.5 6 Norte 17 Noroeste 0 -- -- 72
2018-09-19 13:00:00 25.1 10 Noroeste 15 Noroeste 0 -- -- 75
2018-09-19 12:00:00 25.1 5 Norte 13 Nordeste 0 -- -- 73
2018-09-19 11:00:00 25 6 Este 13 Nordeste 0 -- -- 74
2018-09-19 10:00:00 25.1 8 Este 12 Este 0 -- -- 70
2018-09-19 09:00:00 22.7 5 Sudeste 10 Sudeste 0 -- -- 76
2018-09-19 08:00:00 21.5 5 Sur 16 Oeste 0 -- -- 76
2018-09-19 07:00:00 21.6 4 Sudoeste 20 Sudeste 0 -- -- 77
2018-09-19 06:00:00 22.7 6 Sudoeste 31 Sudoeste 0 -- -- 76
2018-09-19 05:00:00 22.7 5 Nordeste 14 Nordeste 0 -- -- 78
2018-09-19 04:00:00 22.9 11 Norte 30 Nordeste 0 -- -- 78
2018-09-19 03:00:00 23.1 19 Nordeste 31 Nordeste 0 -- -- 83
2018-09-19 02:00:00 23.1 6 Este 25 Este 0 -- -- 77
2018-09-19 01:00:00 23.2 11 Este 25 Este 0 -- -- 79
2018-09-19 00:00:00 23 11 Este 20 Este 0 -- -- 74
2018-09-18 23:00:00 23.3 14 Este 20 Nordeste 0 -- -- 78
2018-09-18 22:00:00 23.4 13 Este 26 Nordeste 0 -- -- 79
2018-09-18 21:00:00 23.6 15 Nordeste 27 Nordeste 0 -- -- 79
2018-09-18 20:00:00 23.8 14 Nordeste 23 Nordeste 0 -- -- 76
2018-09-18 19:00:00 24.2 11 Nordeste 19 Nordeste 0 -- -- 75
2018-09-18 18:00:00 24.7 7 Este 15 Este 0 -- -- 71
2018-09-18 17:00:00 25 8 Este 15 Este 0 -- -- 68
2018-09-18 16:00:00 25.4 9 Nordeste 18 Nordeste 0 -- -- 65
2018-09-18 15:00:00 25.1 10 Nordeste 17 Nordeste 0 -- -- 65
2018-09-18 14:00:00 25.2 7 Nordeste 10 Nordeste 0 -- -- 65
2018-09-18 13:00:00 24.9 4 Nordeste 7 Nordeste 0 -- -- 66
2018-09-18 12:00:00 24.7 3 Norte 8 Norte 0 -- -- 67
2018-09-18 11:00:00 25.4 3 Norte 13 Este 0 -- -- 61
2018-09-18 10:00:00 24.6 10 Nordeste 13 Este 0 -- -- 66
2018-09-18 09:00:00 22.6 6 Sudeste 24 Sudoeste 0 -- -- 68
2018-09-18 08:00:00 21.1 13 Sudoeste 23 Sudoeste 0 -- -- 70
2018-09-18 07:00:00 21.3 6 Sudoeste 14 Sur 0 -- -- 70
2018-09-18 06:00:00 21.7 7 Sudoeste 22 Sur 0 -- -- 71
2018-09-18 05:00:00 21.2 6 Sudeste 12 Sudeste 0 -- -- 71
2018-09-18 04:00:00 21 5 Sur 10 Sudeste 0 -- -- 72
2018-09-18 03:00:00 20.3 7 Sur 12 Sudeste 0 -- -- 72
2018-09-18 02:00:00 20.6 7 Sur 11 Sur 0 -- -- 72
2018-09-18 01:00:00 21.3 10 Sur 14 Sur 0 -- -- 70
2018-09-18 00:00:00 21.4 6 Sur 14 Sudeste 0 -- -- 70
2018-09-17 23:00:00 22.3 6 Este 20 Este 0 -- -- 68
2018-09-17 22:00:00 23 9 Nordeste 17 Nordeste 0 -- -- 72
2018-09-17 21:00:00 23.2 9 Nordeste 17 Nordeste 0 -- -- 73
2018-09-17 20:00:00 23.5 9 Nordeste 16 Nordeste 0 -- -- 70
2018-09-17 19:00:00 24.1 4 Nordeste 15 Este 0 -- -- 67
2018-09-17 18:00:00 24.5 11 Nordeste 21 Nordeste 0 -- -- 65
2018-09-17 17:00:00 24.7 11 Nordeste 21 Nordeste 0 -- -- 65
2018-09-17 16:00:00 25 10 Nordeste 22 Nordeste 0 -- -- 65
2018-09-17 15:00:00 25.2 6 Nordeste 23 Nordeste 0 -- -- 65
2018-09-17 14:00:00 24.6 15 Nordeste 24 Nordeste 0 -- -- 65
2018-09-17 13:00:00 24.6 8 Este 13 Este 0 -- -- 65
2018-09-17 12:00:00 23.9 7 Este 12 Este 0 -- -- 71
2018-09-17 11:00:00 23.8 11 Nordeste 17 Nordeste 0 -- -- 70
2018-09-17 10:00:00 23.4 10 Nordeste 17 Este 0 -- -- 69
2018-09-17 09:00:00 22 8 Sudeste 18 Sudeste 0 -- -- 66
2018-09-17 08:00:00 21.3 9 Sudeste 16 Sudeste 0 -- -- 68
2018-09-17 07:00:00 21.2 8 Sudeste 23 Este 0 -- -- 68
2018-09-17 06:00:00 20.9 11 Sudeste 19 Sudeste 0 -- -- 69
2018-09-17 05:00:00 21.2 10 Sur 15 Sudeste 0 -- -- 72
2018-09-17 04:00:00 22.2 10 Este 17 Este 0 -- -- 77
2018-09-17 03:00:00 22.5 10 Este 22 Este 0 -- -- 77
2018-09-17 02:00:00 22.3 11 Este 21 Este 0 -- -- 76
2018-09-17 01:00:00 22.6 12 Este 21 Este 0 -- -- 77
2018-09-17 00:00:00 22.7 10 Este 20 Este 0 -- -- 77
2018-09-16 23:00:00 22.8 10 Este 21 Este 0 -- -- 77
2018-09-16 22:00:00 23 12 Este 22 Este 0 -- -- 76
2018-09-16 21:00:00 23.2 13 Nordeste 21 Nordeste 0 -- -- 77
2018-09-16 20:00:00 23.4 13 Nordeste 22 Nordeste 0 -- -- 77
2018-09-16 19:00:00 23.6 13 Nordeste 23 Nordeste 0 -- -- 77
2018-09-16 18:00:00 23.8 15 Nordeste 23 Nordeste 0 -- -- 78
2018-09-16 17:00:00 24.2 10 Nordeste 17 Nordeste 0 -- -- 75
2018-09-16 16:00:00 24.6 8 Nordeste 12 Nordeste 0 -- -- 72
2018-09-16 15:00:00 24.5 7 Nordeste 14 Nordeste 0 -- -- 72
2018-09-16 14:00:00 24.1 8 Nordeste 18 Nordeste 0 -- -- 72
2018-09-16 13:00:00 23.8 13 Nordeste 26 Nordeste 0 -- -- 73
2018-09-16 12:00:00 23.7 18 Nordeste 29 Nordeste 0 -- -- 77
2018-09-16 11:00:00 23.8 14 Nordeste 25 Nordeste 0 -- -- 78
2018-09-16 10:00:00 24 12 Nordeste 21 Este 0 -- -- 73
2018-09-16 09:00:00 22.9 7 Este 21 Este 0 -- -- 76
2018-09-16 08:00:00 21.8 8 Este 24 Este 0 -- -- 76
2018-09-16 07:00:00 22 13 Este 25 Nordeste 0 -- -- 77
2018-09-16 06:00:00 22.3 14 Este 29 Este 0 -- -- 76
2018-09-16 05:00:00 22.7 21 Este 31 Este 0 -- -- 79
2018-09-16 04:00:00 22.2 8 Sudeste 17 Este 0 -- -- 74
2018-09-16 03:00:00 22.6 8 Sudeste 21 Este 0 -- -- 75
2018-09-16 02:00:00 22.6 8 Este 20 Este 0 -- -- 76
2018-09-16 01:00:00 22.6 8 Sudeste 15 Sudeste 0 -- -- 75
2018-09-16 00:00:00 22.8 6 Sudeste 17 Sudeste 0 -- -- 74
2018-09-15 23:00:00 22.7 9 Sudeste 15 Sudeste 0 -- -- 72
2018-09-15 22:00:00 23 4 Sudeste 15 Nordeste 0 -- -- 68
2018-09-15 21:00:00 23.8 5 Este 19 Nordeste 0 -- -- 67
2018-09-15 20:00:00 24.5 12 Nordeste 21 Este 0 -- -- 62
2018-09-15 19:00:00 24.6 5 Este 21 Nordeste 0 -- -- 66
2018-09-15 18:00:00 25.8 10 Nordeste 19 Nordeste 0 -- -- 69
2018-09-15 17:00:00 26.1 12 Nordeste 22 Nordeste 0 -- -- 72
2018-09-15 16:00:00 26.3 13 Nordeste 21 Nordeste 0 -- -- 72
2018-09-15 15:00:00 26.5 10 Nordeste 23 Nordeste 0 -- -- 71
2018-09-15 14:00:00 25.9 16 Nordeste 27 Nordeste 0 -- -- 73
2018-09-15 13:00:00 25.9 12 Nordeste 25 Nordeste 0 -- -- 74
2018-09-15 12:00:00 25.5 16 Nordeste 29 Nordeste 0 -- -- 76
2018-09-15 11:00:00 24.6 19 Nordeste 31 Nordeste 0 -- -- 80
2018-09-15 10:00:00 24.6 9 Nordeste 31 Nordeste 0 -- -- 79
2018-09-15 09:00:00 23.6 4 Sur 26 Nordeste 0 -- -- 83
2018-09-15 08:00:00 23.2 13 Nordeste 24 Nordeste 0 -- -- 86
2018-09-15 07:00:00 23.2 7 Sudoeste 17 Norte 0 -- -- 85
2018-09-15 06:00:00 23.2 0 Calma 9 Sudoeste 0 -- -- 84
2018-09-15 05:00:00 23.3 3 Noroeste 13 Nordeste 0 -- -- 85
2018-09-15 04:00:00 23.5 0 Calma 21 Nordeste 0 -- -- 85
2018-09-15 03:00:00 23.8 5 Nordeste 14 Nordeste 0 -- -- 86
2018-09-15 02:00:00 23.8 3 Norte 15 Nordeste 0 -- -- 85
2018-09-15 01:00:00 24 3 Oeste 15 Nordeste 0 -- -- 85
2018-09-15 00:00:00 24.2 4 Noroeste 22 Nordeste 0 -- -- 84
2018-09-14 23:00:00 24.3 12 Nordeste 22 Nordeste 0 -- -- 85
2018-09-14 22:00:00 24.4 8 Nordeste 19 Nordeste 0 -- -- 85
2018-09-14 21:00:00 24.7 4 Norte 14 Nordeste 0 -- -- 84
2018-09-14 20:00:00 24.9 11 Nordeste 17 Nordeste 0 -- -- 84
2018-09-14 19:00:00 25.6 5 Nordeste 11 Noroeste 0 -- -- 80
2018-09-14 18:00:00 26.7 6 Norte 13 Norte 0 -- -- 77
2018-09-14 17:00:00 27 6 Norte 13 Norte 0 -- -- 77
2018-09-14 16:00:00 27.9 6 Norte 9 Norte 0 -- -- 71
2018-09-14 15:00:00 28 6 Norte 13 Noroeste 0 -- -- 68
2018-09-14 14:00:00 28 9 Norte 14 Noroeste 0 -- -- 68
2018-09-14 13:00:00 27.5 6 Norte 12 Noroeste 0 -- -- 71
2018-09-14 12:00:00 26.9 5 Norte 9 Noroeste 0 -- -- 77
2018-09-14 11:00:00 26.1 5 Norte 8 Noroeste 0 -- -- 78
2018-09-14 10:00:00 25.2 6 Este 9 Este 0 -- -- 82
2018-09-14 09:00:00 23.5 0 Calma 5 Sudoeste 0 -- -- 87
2018-09-14 08:00:00 21.9 0 Calma 6 Sudeste 0 -- -- 86
2018-09-14 07:00:00 22.7 3 Sur 8 Sur 0 -- -- 88
2018-09-14 06:00:00 23.5 6 Noroeste 15 Noroeste 0 -- -- 88
2018-09-14 05:00:00 23.6 10 Oeste 19 Oeste 0 -- -- 88
2018-09-14 04:00:00 23.6 9 Oeste 19 Oeste 0 -- -- 88
2018-09-14 03:00:00 23.7 12 Oeste 21 Noroeste 0 -- -- 88
2018-09-14 02:00:00 24 6 Nordeste 13 Nordeste 0 -- -- 87
2018-09-14 01:00:00 24.1 2 Noroeste 14 Noroeste 0 -- -- 85
2018-09-14 00:00:00 24.2 11 Oeste 19 Oeste 0 -- -- 85
2018-09-13 23:00:00 24.4 12 Noroeste 17 Oeste 0 -- -- 84
2018-09-13 22:00:00 24.7 5 Noroeste 9 Oeste 0 -- -- 83
2018-09-13 21:00:00 25 5 Noroeste 10 Oeste 0 -- -- 83
2018-09-13 20:00:00 25.8 4 Noroeste 8 Noroeste 0 -- -- 78
2018-09-13 19:00:00 26.8 5 Noroeste 10 Noroeste 0 -- -- 76
2018-09-13 18:00:00 27.5 7 Noroeste 21 Noroeste 0 -- -- 72
2018-09-13 17:00:00 29.2 15 Noroeste 23 Noroeste 0 -- -- 64
2018-09-13 16:00:00 28.4 13 Noroeste 20 Noroeste 0 -- -- 66
2018-09-13 15:00:00 29.2 7 Noroeste 16 Oeste 0 -- -- 62
2018-09-13 14:00:00 27.7 8 Noroeste 15 Noroeste 0 -- -- 72
2018-09-13 13:00:00 26.8 5 Nordeste 12 Nordeste 0 -- -- 76
2018-09-13 12:00:00 26.5 10 Noroeste 18 Oeste 0 -- -- 77
2018-09-13 11:00:00 25.9 6 Noroeste 19 Oeste 0 -- -- 78
2018-09-13 10:00:00 24.8 6 Oeste 19 Noroeste 0 -- -- 83
2018-09-13 09:00:00 24.1 6 Oeste 17 Noroeste 0 -- -- 85
2018-09-13 08:00:00 23.9 10 Oeste 15 Oeste 0 -- -- 85
2018-09-13 07:00:00 23.9 8 Oeste 15 Oeste 0 -- -- 84
2018-09-13 06:00:00 23.9 12 Oeste 17 Oeste 0 -- -- 85
2018-09-13 05:00:00 23.9 10 Oeste 19 Oeste 0 -- -- 85
2018-09-13 04:00:00 24 10 Oeste 18 Oeste 0 -- -- 84
2018-09-13 03:00:00 24.3 9 Oeste 26 Oeste 0 -- -- 82
2018-09-13 02:00:00 24.3 17 Oeste 24 Oeste 0 -- -- 82
2018-09-13 01:00:00 24.5 9 Noroeste 22 Oeste 0 -- -- 80
2018-09-13 00:00:00 24.4 12 Oeste 18 Sudoeste 0 -- -- 80
2018-09-12 23:00:00 24.4 9 Oeste 17 Sudoeste 0 -- -- 80
2018-09-12 22:00:00 24.2 11 Norte 36 Nordeste 0 -- -- 81
2018-09-12 21:00:00 24.2 14 Norte 29 Nordeste 0 -- -- 81
2018-09-12 20:00:00 24.7 5 Norte 19 Oeste 0 -- -- 78
2018-09-12 19:00:00 24.6 9 Noroeste 20 Nordeste 0 -- -- 80
2018-09-12 18:00:00 25.1 10 Nordeste 27 Nordeste 0 -- -- 77
2018-09-12 17:00:00 25.7 9 Este 22 Este 0 -- -- 74
2018-09-12 16:00:00 24.8 8 Nordeste 34 Este 0 -- -- 75
2018-09-12 15:00:00 24.7 8 Este 26 Nordeste 0 -- -- 74
2018-09-12 14:00:00 25.1 11 Nordeste 32 Nordeste 0 -- -- 72
2018-09-12 13:00:00 26.5 18 Este 44 Norte 0 -- -- 66
2018-09-12 12:00:00 24.8 24 Nordeste 44 Nordeste 0 -- -- 70
2018-09-12 11:00:00 25.7 9 Norte 27 Noroeste 0 -- -- 67
2018-09-12 10:00:00 25 8 Noroeste 21 Noroeste 0 -- -- 66
2018-09-12 09:00:00 23.6 6 Oeste 18 Sur 0 -- -- 73
2018-09-12 08:00:00 22.4 17 Nordeste 27 Este 0 -- -- 75
2018-09-12 07:00:00 22.5 8 Este 26 Nordeste 0 -- -- 79
2018-09-12 06:00:00 22.7 14 Nordeste 37 Nordeste 0 -- -- 83
2018-09-12 05:00:00 22.9 19 Nordeste 37 Nordeste 0 -- -- 83
2018-09-12 04:00:00 22.5 7 Sudeste 18 Este 0 -- -- 79
2018-09-12 03:00:00 22.6 14 Este 24 Este 0 -- -- 82
2018-09-12 02:00:00 22.8 12 Este 27 Nordeste 0 -- -- 83
2018-09-12 01:00:00 22.9 15 Nordeste 25 Este 0 -- -- 82
2018-09-12 00:00:00 22.6 9 Este 17 Este 0 -- -- 81
2018-09-11 23:00:00 22.6 12 Este 32 Nordeste 0 -- -- 80
2018-09-11 22:00:00 22.8 17 Nordeste 36 Nordeste 0 -- -- 80
2018-09-11 21:00:00 23 17 Nordeste 31 Nordeste 0 -- -- 80
2018-09-11 20:00:00 23.4 16 Nordeste 29 Nordeste 0 -- -- 77
2018-09-11 19:00:00 24.1 4 Este 17 Este 0 -- -- 72
2018-09-11 18:00:00 24.5 9 Nordeste 18 Nordeste 0 -- -- 74
2018-09-11 17:00:00 26.4 13 Este 23 Este 0 -- -- 66
2018-09-11 16:00:00 27 13 Este 22 Nordeste 0 -- -- 58
2018-09-11 15:00:00 26.9 10 Nordeste 21 Este 0 -- -- 61
2018-09-11 14:00:00 25.7 10 Este 22 Nordeste 0 -- -- 65
2018-09-11 13:00:00 25.9 14 Este 23 Este 0 -- -- 65
2018-09-11 12:00:00 26.1 12 Este 22 Este 0 -- -- 64
2018-09-11 11:00:00 24.9 13 Este 23 Sudeste 0 -- -- 70
2018-09-11 10:00:00 23.6 9 Este 14 Este 0 -- -- 77
2018-09-11 09:00:00 22.2 9 Sudeste 13 Este 0 -- -- 79
2018-09-11 08:00:00 21.7 7 Este 21 Nordeste 0 -- -- 78
2018-09-11 07:00:00 21.6 9 Sudeste 25 Sudeste 0 -- -- 78
2018-09-11 06:00:00 21.7 16 Sudeste 30 Sudeste 0 -- -- 75
2018-09-11 05:00:00 22.3 9 Este 22 Nordeste 0 -- -- 79
2018-09-11 04:00:00 22.5 14 Nordeste 28 Nordeste 0 -- -- 80
2018-09-11 03:00:00 22.4 17 Este 27 Nordeste 0 -- -- 79
2018-09-11 02:00:00 21.6 9 Sudeste 21 Este 0 -- -- 76
2018-09-11 01:00:00 21.6 10 Sudeste 22 Sudeste 0 -- -- 75
2018-09-11 00:00:00 22 12 Sudeste 35 Este 0 -- -- 74
2018-09-10 23:00:00 22.1 9 Sudeste 25 Este 0 -- -- 74
2018-09-10 22:00:00 22.3 13 Este 26 Este 0 -- -- 74
2018-09-10 21:00:00 22.9 15 Este 29 Este 0 -- -- 76
2018-09-10 20:00:00 23.1 19 Este 32 Nordeste 0 -- -- 77
2018-09-10 19:00:00 23.7 13 Este 24 Este 0 -- -- 74
2018-09-10 18:00:00 24.2 12 Este 23 Nordeste 0 -- -- 73
2018-09-10 17:00:00 24.8 15 Nordeste 28 Nordeste 0 -- -- 72
2018-09-10 16:00:00 25.7 16 Nordeste 37 Nordeste 0 -- -- 67
2018-09-10 15:00:00 25.9 15 Nordeste 26 Nordeste 0 -- -- 66
2018-09-10 14:00:00 25.9 16 Nordeste 26 Nordeste 0 -- -- 65
2018-09-10 13:00:00 26.2 19 Este 27 Este 0 -- -- 65
2018-09-10 12:00:00 25.8 15 Este 30 Nordeste 0 -- -- 66
2018-09-10 11:00:00 25 17 Este 25 Este 0 -- -- 69
2018-09-10 10:00:00 23.8 15 Este 27 Este 0 -- -- 72
2018-09-10 09:00:00 21.9 15 Este 24 Este 0 -- -- 77
2018-09-10 08:00:00 20.9 11 Sudeste 20 Sudeste 0 -- -- 75
2018-09-10 07:00:00 21.2 11 Sudeste 26 Este 0 -- -- 76
2018-09-10 06:00:00 22 15 Este 27 Este 0 -- -- 78
2018-09-10 05:00:00 22 15 Este 25 Este 0 -- -- 80
2018-09-10 04:00:00 22.1 15 Este 29 Este 0 -- -- 79
2018-09-10 03:00:00 22.2 18 Este 33 Este 0 -- -- 79
2018-09-10 02:00:00 22.6 19 Este 31 Este 0 -- -- 79
2018-09-10 01:00:00 22.6 12 Este 23 Este 0 -- -- 78
2018-09-10 00:00:00 22.3 9 Sudeste 21 Este 0 -- -- 76
2018-09-09 23:00:00 22.5 12 Este 26 Este 0 -- -- 77
2018-09-09 22:00:00 22.6 13 Este 28 Este 0 -- -- 76
2018-09-09 21:00:00 22.5 18 Este 29 Este 0 -- -- 76
2018-09-09 20:00:00 22.7 15 Nordeste 28 Este 0 -- -- 75
2018-09-09 19:00:00 23 17 Nordeste 32 Este 0 -- -- 74
2018-09-09 18:00:00 23.8 19 Nordeste 30 Nordeste 0 -- -- 70
2018-09-09 17:00:00 24.7 14 Nordeste 28 Nordeste 0 -- -- 67
2018-09-09 16:00:00 24.7 15 Nordeste 26 Este 0 -- -- 66
2018-09-09 15:00:00 23.9 16 Nordeste 33 Nordeste 0 -- -- 68
2018-09-09 14:00:00 23.9 18 Nordeste 33 Nordeste 0 -- -- 68
2018-09-09 13:00:00 24.3 17 Nordeste 30 Nordeste 0 -- -- 68
2018-09-09 12:00:00 24 16 Nordeste 32 Nordeste 0 -- -- 67
2018-09-09 11:00:00 23.4 17 Nordeste 30 Nordeste 0 -- -- 69
2018-09-09 10:00:00 22.5 18 Nordeste 29 Este 0 -- -- 72
2018-09-09 09:00:00 22.1 17 Este 25 Este 0 -- -- 71
2018-09-09 08:00:00 21.1 8 Sudeste 27 Este 0 -- -- 71
2018-09-09 07:00:00 21.1 10 Sudeste 23 Este 0 -- -- 71
2018-09-09 06:00:00 21.1 9 Sudeste 28 Sudeste 0 -- -- 69
2018-09-09 05:00:00 21.3 12 Sudeste 26 Sudeste 0 -- -- 68
2018-09-09 04:00:00 21.2 11 Sudeste 23 Sudeste 0 -- -- 68
2018-09-09 03:00:00 21.3 10 Sudeste 21 Sudeste 0 -- -- 71
2018-09-09 02:00:00 21.6 11 Sudeste 29 Este 0 -- -- 71
2018-09-09 01:00:00 22.2 15 Este 28 Este 0 -- -- 74
2018-09-09 00:00:00 22.3 18 Este 30 Este 0 -- -- 74
2018-09-08 23:00:00 22.4 20 Este 28 Nordeste 0 -- -- 73
2018-09-08 22:00:00 22.4 12 Este 22 Nordeste 0 -- -- 72
2018-09-08 21:00:00 22.5 13 Nordeste 24 Nordeste 0 -- -- 72
2018-09-08 20:00:00 22.8 14 Nordeste 26 Nordeste 0 -- -- 71
2018-09-08 19:00:00 23.2 14 Nordeste 23 Nordeste 0 -- -- 71
2018-09-08 18:00:00 24.3 9 Este 16 Este 0 -- -- 67
2018-09-08 17:00:00 25.3 10 Este 19 Este 0 -- -- 61
2018-09-08 16:00:00 26 12 Este 21 Nordeste 0 -- -- 60
2018-09-08 15:00:00 26.1 10 Nordeste 25 Nordeste 0 -- -- 58
2018-09-08 14:00:00 25.7 15 Nordeste 25 Nordeste 0 -- -- 61
2018-09-08 13:00:00 24.8 16 Este 24 Nordeste 0 -- -- 62
2018-09-08 12:00:00 24.9 17 Nordeste 27 Nordeste 0 -- -- 64
2018-09-08 11:00:00 24.3 17 Nordeste 31 Nordeste 0 -- -- 65
2018-09-08 10:00:00 23 19 Este 30 Este 0 -- -- 69
2018-09-08 09:00:00 22.4 13 Sudeste 18 Sudeste 0 -- -- 68
2018-09-08 08:00:00 21.1 10 Sudeste 25 Este 0 -- -- 72
2018-09-08 07:00:00 21.8 16 Nordeste 24 Nordeste 0 -- -- 76
2018-09-08 06:00:00 21.5 11 Este 24 Este 0 -- -- 75
2018-09-08 05:00:00 20.7 8 Sudeste 17 Sudeste 0 -- -- 72
2018-09-08 04:00:00 20.8 10 Sudeste 16 Sudeste 0 -- -- 73
2018-09-08 03:00:00 20.7 9 Sudeste 18 Sudeste 0 -- -- 75
2018-09-08 02:00:00 21 6 Sudeste 20 Nordeste 0 -- -- 74
2018-09-08 01:00:00 21.6 5 Sudeste 28 Nordeste 0 -- -- 74
2018-09-08 00:00:00 22.3 16 Este 27 Este 0 -- -- 78
2018-09-07 23:00:00 22 5 Este 23 Nordeste 0 -- -- 77
2018-09-07 22:00:00 22.6 15 Este 24 Este 0 -- -- 78
2018-09-07 21:00:00 22.8 16 Este 24 Nordeste 0 -- -- 78
2018-09-07 20:00:00 23 13 Nordeste 26 Nordeste 0 -- -- 77
2018-09-07 19:00:00 23.4 12 Nordeste 23 Nordeste 0 -- -- 75
2018-09-07 18:00:00 23.6 10 Nordeste 19 Nordeste 0 -- -- 76
2018-09-07 17:00:00 23.9 11 Nordeste 23 Nordeste 0 -- -- 74
2018-09-07 16:00:00 24.2 13 Nordeste 28 Nordeste 0 -- -- 73
2018-09-07 15:00:00 25 16 Nordeste 26 Nordeste 0 -- -- 71
2018-09-07 14:00:00 25.5 16 Nordeste 27 Nordeste 0 -- -- 70
2018-09-07 13:00:00 25.1 13 Este 21 Este 0 -- -- 69
2018-09-07 12:00:00 25.3 14 Nordeste 26 Nordeste 0 -- -- 69
2018-09-07 11:00:00 25.1 13 Nordeste 23 Nordeste 0 -- -- 70
2018-09-07 10:00:00 24.3 9 Este 19 Sudeste 0 -- -- 70
2018-09-07 09:00:00 21.8 6 Sudeste 13 Sudeste 0 -- -- 74
2018-09-07 08:00:00 19.8 8 Sudeste 12 Sudeste 0 -- -- 74
2018-09-07 07:00:00 20.4 11 Sudeste 15 Sudeste 0 -- -- 77
2018-09-07 06:00:00 20.4 8 Sur 19 Sudeste 0 -- -- 75
2018-09-07 05:00:00 20.5 9 Sur 13 Sudeste 0 -- -- 75
2018-09-07 04:00:00 21.2 11 Sudeste 22 Este 0 -- -- 77
2018-09-07 03:00:00 22.1 14 Este 28 Este 0 -- -- 80
2018-09-07 02:00:00 21.9 10 Este 25 Este 0 -- -- 79
2018-09-07 01:00:00 22 8 Sudeste 18 Este 0 -- -- 80
2018-09-07 00:00:00 22.3 11 Este 18 Este 0 -- -- 80
2018-09-06 23:00:00 22.6 6 Este 22 Nordeste 0 -- -- 79
2018-09-06 22:00:00 23 14 Nordeste 24 Este 0 -- -- 82
2018-09-06 21:00:00 23.1 5 Sudeste 27 Nordeste 0 -- -- 77
2018-09-06 20:00:00 23.6 10 Este 22 Este 0 -- -- 77
2018-09-06 19:00:00 24 10 Sudeste 18 Nordeste 0 -- -- 75
2018-09-06 18:00:00 23.9 10 Este 19 Este 0 -- -- 78
2018-09-06 17:00:00 24.1 9 Sudeste 22 Este 0 -- -- 77
2018-09-06 16:00:00 23.8 12 Nordeste 34 Nordeste 0 -- -- 80
2018-09-06 15:00:00 23.6 17 Nordeste 37 Nordeste 0 -- -- 79
2018-09-06 14:00:00 23.9 13 Nordeste 28 Nordeste 0 -- -- 80
2018-09-06 13:00:00 24.9 7 Sudeste 19 Sudeste 0 -- -- 71
2018-09-06 12:00:00 24.6 10 Este 29 Sudeste 0 -- -- 73
2018-09-06 11:00:00 23.5 13 Este 24 Este 0 -- -- 80
2018-09-06 10:00:00 23.2 10 Este 18 Este 0 -- -- 80
2018-09-06 09:00:00 22.6 9 Este 21 Este 0 -- -- 83
2018-09-06 08:00:00 22.5 11 Nordeste 24 Nordeste 0 -- -- 83
2018-09-06 07:00:00 22.4 14 Nordeste 26 Nordeste 0 -- -- 81
2018-09-06 06:00:00 21.5 11 Sur 15 Sur 0.2 -- -- 84
2018-09-06 05:00:00 22.4 9 Sudeste 19 Sur 0.6 -- -- 78
2018-09-06 04:00:00 22.2 9 Sudeste 19 Este 0 -- -- 74
2018-09-06 03:00:00 22.6 10 Este 20 Este 0 -- -- 74
2018-09-06 02:00:00 22.9 9 Sudeste 23 Nordeste 0 -- -- 74
2018-09-06 01:00:00 23.3 10 Este 21 Sudeste 0 -- -- 76
2018-09-06 00:00:00 23.5 14 Sudeste 25 Sudeste 0 -- -- 76
2018-09-05 23:00:00 23.7 8 Este 23 Nordeste 0 -- -- 74
2018-09-05 22:00:00 23.9 10 Este 23 Este 0 -- -- 74
2018-09-05 21:00:00 24 11 Sudeste 21 Sudeste 0 -- -- 72
2018-09-05 20:00:00 24.3 8 Este 23 Este 0 -- -- 70
2018-09-05 19:00:00 24.9 8 Este 26 Este 0 -- -- 70
2018-09-05 18:00:00 26.5 12 Este 21 Sudeste 0 -- -- 65
2018-09-05 17:00:00 25.7 10 Este 35 Nordeste 0 -- -- 66
2018-09-05 16:00:00 26.3 12 Este 24 Este 0 -- -- 61
2018-09-05 15:00:00 25.7 11 Este 19 Nordeste 0 -- -- 67
2018-09-05 14:00:00 25 7 Nordeste 19 Este 0 -- -- 69
2018-09-05 13:00:00 24.1 10 Este 35 Nordeste 0 -- -- 77
2018-09-05 12:00:00 23.7 22 Nordeste 34 Nordeste 0 -- -- 76
2018-09-05 11:00:00 24.2 14 Nordeste 33 Nordeste 0 -- -- 73
2018-09-05 10:00:00 25.4 11 Este 21 Este 0 -- -- 70
2018-09-05 09:00:00 23.7 9 Este 28 Sudeste 0 -- -- 67
2018-09-05 08:00:00 21.9 18 Sudeste 33 Sudeste 0 -- -- 70
2018-09-05 07:00:00 21.4 12 Sudeste 21 Sudeste 0 -- -- 72
2018-09-05 06:00:00 21.8 14 Sudeste 24 Sudeste 0 -- -- 72
2018-09-05 05:00:00 21.9 13 Sudeste 24 Sudeste 0 -- -- 70
2018-09-05 04:00:00 22.1 11 Sudeste 24 Sudeste 0 -- -- 69
2018-09-05 03:00:00 21.6 12 Sudeste 18 Sudeste 0 -- -- 71
2018-09-05 02:00:00 21.8 10 Sudeste 21 Sudeste 0 -- -- 74
2018-09-05 01:00:00 22.2 12 Sudeste 20 Sudeste 0 -- -- 74
2018-09-05 00:00:00 22 9 Sudeste 22 Sudeste 0 -- -- 72
2018-09-04 23:00:00 22.4 10 Sudeste 18 Este 0 -- -- 73
2018-09-04 22:00:00 23.2 12 Este 17 Este 0 -- -- 77
2018-09-04 21:00:00 23.4 11 Este 24 Nordeste 0 -- -- 77
2018-09-04 20:00:00 23.7 18 Nordeste 33 Nordeste 0 -- -- 77
2018-09-04 19:00:00 24.9 11 Este 33 Nordeste 0 -- -- 73
2018-09-04 18:00:00 25.4 10 Este 24 Este 0 -- -- 66
2018-09-04 17:00:00 26.4 6 Sudeste 15 Sudeste 0 -- -- 64
2018-09-04 16:00:00 27.2 6 Este 23 Este 0 -- -- 60
2018-09-04 15:00:00 26.9 11 Este 24 Nordeste 0 -- -- 62
2018-09-04 14:00:00 26.8 12 Nordeste 31 Nordeste 0 -- -- 63
2018-09-04 13:00:00 26.6 13 Este 28 Nordeste 0 -- -- 61
2018-09-04 12:00:00 26.2 11 Este 21 Este 0 -- -- 64
2018-09-04 11:00:00 25.1 13 Este 24 Este 0 -- -- 68
2018-09-04 10:00:00 23.7 13 Este 25 Nordeste 0 -- -- 76
2018-09-04 09:00:00 23 9 Este 18 Este 0 -- -- 74
2018-09-04 08:00:00 21.3 10 Sudeste 19 Este 0 -- -- 75
2018-09-04 07:00:00 21.5 6 Sudeste 17 Sudeste 0 -- -- 75
2018-09-04 06:00:00 22.3 9 Sudeste 22 Este 0 -- -- 75
2018-09-04 05:00:00 22.5 14 Este 24 Nordeste 0 -- -- 78
2018-09-04 04:00:00 22.2 9 Este 22 Este 0 -- -- 76
2018-09-04 03:00:00 21.8 12 Sudeste 19 Sudeste 0 -- -- 76
2018-09-04 02:00:00 22.1 9 Sudeste 17 Sudeste 0 -- -- 77
2018-09-04 01:00:00 22.3 9 Sudeste 15 Sudeste 0 -- -- 75
2018-09-04 00:00:00 22.2 4 Sudeste 19 Este 0 -- -- 71
2018-09-03 23:00:00 23.1 12 Sudeste 18 Sudeste 0 -- -- 75
2018-09-03 22:00:00 23 13 Sudeste 28 Este 0 -- -- 74
2018-09-03 21:00:00 23.3 10 Este 24 Este 0 -- -- 76
2018-09-03 20:00:00 23.7 10 Sudeste 21 Sudeste 0 -- -- 70
2018-09-03 19:00:00 24 14 Este 22 Este 0 -- -- 71
2018-09-03 18:00:00 24.6 9 Este 20 Nordeste 0 -- -- 70
2018-09-03 17:00:00 25.7 10 Este 26 Nordeste 0 -- -- 64
2018-09-03 16:00:00 26.7 13 Este 36 Este 0 -- -- 62
2018-09-03 15:00:00 26.4 15 Nordeste 33 Nordeste 0 -- -- 62
2018-09-03 14:00:00 26.2 15 Nordeste 28 Nordeste 0 -- -- 61
2018-09-03 13:00:00 26 16 Nordeste 26 Nordeste 0 -- -- 61
2018-09-03 12:00:00 25.9 15 Nordeste 23 Nordeste 0 -- -- 63
2018-09-03 11:00:00 26.3 8 Este 21 Sudeste 0 -- -- 58
2018-09-03 10:00:00 24.6 12 Este 22 Sudeste 0 -- -- 64
2018-09-03 09:00:00 23 12 Sudeste 23 Sudeste 0 -- -- 66
2018-09-03 08:00:00 21.4 14 Sudeste 22 Sur 0 -- -- 70
2018-09-03 07:00:00 21.7 14 Sudeste 25 Sudeste 0 -- -- 72
2018-09-03 06:00:00 21.3 12 Sudeste 23 Sur 0 -- -- 72
2018-09-03 05:00:00 21.3 13 Sudeste 21 Sudeste 0 -- -- 71
2018-09-03 04:00:00 21.5 13 Sudeste 22 Sudeste 0 -- -- 71
2018-09-03 03:00:00 21.5 13 Sudeste 23 Sudeste 0 -- -- 70
2018-09-03 02:00:00 21.7 14 Sudeste 22 Sudeste 0 -- -- 70
2018-09-03 01:00:00 22.3 10 Sudeste 23 Este 0 -- -- 71
2018-09-03 00:00:00 22.9 13 Este 24 Este 0 -- -- 75
2018-09-02 23:00:00 23 13 Este 26 Este 0 -- -- 75
2018-09-02 22:00:00 23.5 16 Este 28 Este 0 -- -- 76
2018-09-02 21:00:00 23.9 10 Este 22 Este 0 -- -- 74
2018-09-02 20:00:00 24.5 11 Este 18 Nordeste 0 -- -- 69
2018-09-02 19:00:00 25.2 10 Este 19 Este 0 -- -- 67
2018-09-02 18:00:00 25.9 11 Este 21 Nordeste 0 -- -- 62
2018-09-02 17:00:00 26 14 Nordeste 24 Nordeste 0 -- -- 59
2018-09-02 16:00:00 26.5 10 Nordeste 21 Nordeste 0 -- -- 59
2018-09-02 15:00:00 26.6 11 Nordeste 17 Nordeste 0 -- -- 57
2018-09-02 14:00:00 26 12 Nordeste 22 Nordeste 0 -- -- 60
2018-09-02 13:00:00 25 11 Este 28 Nordeste 0 -- -- 62
2018-09-02 12:00:00 25.5 11 Nordeste 24 Nordeste 0 -- -- 64
2018-09-02 11:00:00 24.3 13 Este 28 Nordeste 0 -- -- 64
2018-09-02 10:00:00 23.8 14 Este 21 Este 0 -- -- 65
2018-09-02 09:00:00 22.7 8 Sudeste 22 Sudeste 0 -- -- 66
2018-09-02 08:00:00 21.4 14 Sur 19 Sur 0 -- -- 67
2018-09-02 07:00:00 21.2 10 Sur 23 Nordeste 0 -- -- 68
2018-09-02 06:00:00 22.2 6 Sudeste 22 Sudeste 0 -- -- 64
2018-09-02 05:00:00 22.3 12 Sudeste 21 Sudeste 0 -- -- 66
2018-09-02 04:00:00 22.3 12 Sudeste 21 Sudeste 0 -- -- 67
2018-09-02 03:00:00 21.8 12 Sudeste 18 Sudeste 0 -- -- 69
2018-09-02 02:00:00 21.8 8 Sudeste 16 Sudeste 0 -- -- 70
2018-09-02 01:00:00 22.3 8 Sudeste 15 Este 0 -- -- 72
2018-09-02 00:00:00 23.1 11 Este 18 Este 0 -- -- 77
2018-09-01 23:00:00 23.2 10 Este 18 Nordeste 0 -- -- 73
2018-09-01 22:00:00 23.1 13 Este 20 Nordeste 0 -- -- 72
2018-09-01 21:00:00 23.4 9 Este 16 Este 0 -- -- 68
2018-09-01 20:00:00 23.6 6 Este 9 Este 0 -- -- 66
2018-09-01 19:00:00 24.2 5 Este 11 Este 0 -- -- 63
2018-09-01 18:00:00 25.6 8 Nordeste 12 Este 0 -- -- 59
2018-09-01 17:00:00 25.5 7 Nordeste 12 Nordeste 0 -- -- 58
2018-09-01 16:00:00 25.6 7 Nordeste 11 Este 0 -- -- 59
2018-09-01 15:00:00 25.4 7 Nordeste 15 Nordeste 0 -- -- 59
2018-09-01 14:00:00 24.7 11 Nordeste 23 Nordeste 0 -- -- 61
2018-09-01 13:00:00 24.1 12 Nordeste 28 Nordeste 0 -- -- 63
2018-09-01 12:00:00 23.7 15 Nordeste 26 Nordeste 0 -- -- 64
2018-09-01 11:00:00 23.5 12 Nordeste 23 Nordeste 0 -- -- 62
2018-09-01 10:00:00 23.2 12 Nordeste 22 Nordeste 0 -- -- 65
2018-09-01 09:00:00 22.2 13 Este 21 Nordeste 0 -- -- 69
2018-09-01 08:00:00 22 17 Este 30 Este 0 -- -- 66
2018-09-01 07:00:00 22 10 Sudeste 21 Este 0 -- -- 65
2018-09-01 06:00:00 22.2 6 Este 22 Nordeste 0 -- -- 67
2018-09-01 05:00:00 22.2 9 Este 24 Sudeste 0 -- -- 65
2018-09-01 04:00:00 22.1 14 Este 27 Sudeste 0 -- -- 65
2018-09-01 03:00:00 21.9 17 Sudeste 30 Sudeste 0 -- -- 66
2018-09-01 02:00:00 21.6 11 Sudeste 22 Sudeste 0 -- -- 64
2018-09-01 01:00:00 22.3 10 Sudeste 25 Sudeste 0 -- -- 62
2018-09-01 00:00:00 22.4 14 Este 32 Este 0 -- -- 65
2018-08-31 23:00:00 22.4 17 Este 27 Nordeste 0 -- -- 70
2018-08-31 22:00:00 22.6 16 Este 24 Este 0 -- -- 71
2018-08-31 21:00:00 22.9 15 Este 30 Este 0 -- -- 68
2018-08-31 20:00:00 23.1 19 Este 33 Este 0 -- -- 71
2018-08-31 19:00:00 23.7 18 Nordeste 27 Nordeste 0 -- -- 68
2018-08-31 18:00:00 25.1 17 Este 28 Nordeste 0 -- -- 64
2018-08-31 17:00:00 25.5 20 Este 33 Nordeste 0 -- -- 64
2018-08-31 16:00:00 25.4 16 Este 31 Nordeste 0 -- -- 64
2018-08-31 15:00:00 25.8 17 Nordeste 38 Este 0 -- -- 59
2018-08-31 14:00:00 25.8 24 Este 41 Nordeste 0 -- -- 57
2018-08-31 13:00:00 26.1 22 Este 34 Este 0 -- -- 59
2018-08-31 12:00:00 25.4 18 Este 31 Sudeste 0 -- -- 62
2018-08-31 11:00:00 24.7 19 Este 39 Este 0 -- -- 60
2018-08-31 10:00:00 24.2 14 Este 33 Este 0 -- -- 64
2018-08-31 09:00:00 22.2 15 Sudeste 31 Sudeste 0 -- -- 69
2018-08-31 08:00:00 21.9 9 Este 37 Este 0 -- -- 71
2018-08-31 07:00:00 21.9 15 Este 35 Este 0 -- -- 74
2018-08-31 06:00:00 22.2 17 Nordeste 35 Nordeste 0 -- -- 74
2018-08-31 05:00:00 22.1 17 Este 35 Este 0 -- -- 76
2018-08-31 04:00:00 21.7 9 Sudeste 28 Nordeste 0 -- -- 74
2018-08-31 03:00:00 22.4 15 Este 31 Nordeste 0 -- -- 75
2018-08-31 02:00:00 22.5 15 Este 36 Nordeste 0 -- -- 77
2018-08-31 01:00:00 22.2 13 Este 27 Este 0 -- -- 76
2018-08-31 00:00:00 22.3 14 Sudeste 34 Nordeste 0 -- -- 73
2018-08-30 23:00:00 22.8 17 Este 31 Este 0 -- -- 77
2018-08-30 22:00:00 22.9 16 Este 28 Este 0 -- -- 76
2018-08-30 21:00:00 23.3 12 Este 32 Nordeste 0 -- -- 76
2018-08-30 20:00:00 23.6 21 Nordeste 39 Nordeste 0 -- -- 78
2018-08-30 19:00:00 24.1 18 Este 30 Este 0 -- -- 71
2018-08-30 18:00:00 24.6 14 Este 28 Este 0 -- -- 72
2018-08-30 17:00:00 24.6 15 Este 33 Nordeste 0 -- -- 70
2018-08-30 16:00:00 25.6 13 Este 31 Este 0 -- -- 67
2018-08-30 15:00:00 25.2 14 Este 32 Nordeste 0 -- -- 67
2018-08-30 14:00:00 24.7 20 Este 46 Nordeste 0 -- -- 68
2018-08-30 13:00:00 25.9 14 Este 46 Nordeste 0 -- -- 59
2018-08-30 12:00:00 25.1 19 Nordeste 42 Este 0 -- -- 64
2018-08-30 11:00:00 23.8 22 Nordeste 39 Nordeste 0 -- -- 70
2018-08-30 10:00:00 23.2 21 Nordeste 41 Este 0 -- -- 72
2018-08-30 09:00:00 22.7 21 Este 38 Nordeste 0 -- -- 74
2018-08-30 08:00:00 22.6 22 Este 37 Nordeste 0 -- -- 72
2018-08-30 07:00:00 22.7 22 Este 45 Nordeste 0 -- -- 71
2018-08-30 06:00:00 22.8 15 Este 35 Este 0 -- -- 71
2018-08-30 05:00:00 22.9 14 Este 45 Nordeste 0 -- -- 70
2018-08-30 04:00:00 22.9 18 Este 32 Este 0 -- -- 74
2018-08-30 03:00:00 22.8 13 Sudeste 39 Este 0 -- -- 69
2018-08-30 02:00:00 23.2 19 Este 43 Este 0 -- -- 71
2018-08-30 01:00:00 23.2 21 Este 41 Nordeste 0 -- -- 70
2018-08-30 00:00:00 23.2 19 Sudeste 32 Sudeste 0 -- -- 69
2018-08-29 23:00:00 23.1 22 Este 53 Nordeste 0 -- -- 74
2018-08-29 22:00:00 23.1 26 Nordeste 46 Nordeste 0 -- -- 76
2018-08-29 21:00:00 23.1 22 Nordeste 45 Nordeste 0 -- -- 77
2018-08-29 20:00:00 23.5 22 Nordeste 43 Nordeste 0 -- -- 77
2018-08-29 19:00:00 23.8 21 Nordeste 46 Este 0 -- -- 76
2018-08-29 18:00:00 24.7 17 Este 33 Este 0 -- -- 69
2018-08-29 17:00:00 25.1 15 Este 43 Nordeste 0 -- -- 68
2018-08-29 16:00:00 24.6 19 Este 46 Este 0 -- -- 69
2018-08-29 15:00:00 25.7 16 Este 37 Nordeste 0 -- -- 68
2018-08-29 14:00:00 26.8 15 Este 40 Nordeste 0 -- -- 61
2018-08-29 13:00:00 24.7 22 Nordeste 46 Nordeste 0 -- -- 70
2018-08-29 12:00:00 25.9 22 Nordeste 48 Este 0 -- -- 69
2018-08-29 11:00:00 25.3 20 Este 40 Este 0 -- -- 63
2018-08-29 10:00:00 24.2 20 Nordeste 36 Este 0 -- -- 73
2018-08-29 09:00:00 24.1 11 Este 30 Nordeste 0 -- -- 67
2018-08-29 08:00:00 22.3 15 Sudeste 30 Sudeste 0 -- -- 68
2018-08-29 07:00:00 22.2 10 Sudeste 26 Sudeste 0 -- -- 70
2018-08-29 06:00:00 22.5 13 Sudeste 39 Sudeste 0 -- -- 71
2018-08-29 05:00:00 21.9 15 Sudeste 28 Sudeste 0 -- -- 70
2018-08-29 04:00:00 22.1 11 Sudeste 24 Este 0 -- -- 71
2018-08-29 03:00:00 21.8 6 Sudeste 19 Sudeste 0 -- -- 73
2018-08-29 02:00:00 22.1 11 Este 27 Sudeste 0 -- -- 73
2018-08-29 01:00:00 22 11 Sudeste 27 Sudeste 0 -- -- 69
2018-08-29 00:00:00 22.6 16 Este 29 Nordeste 0 -- -- 71
2018-08-28 23:00:00 22.4 12 Sudeste 25 Este 0 -- -- 70
2018-08-28 22:00:00 22.9 22 Este 33 Nordeste 0 -- -- 72
2018-08-28 21:00:00 23.1 19 Este 35 Nordeste 0 -- -- 74
2018-08-28 20:00:00 23.8 14 Este 30 Este 0 -- -- 71
2018-08-28 19:00:00 24.2 14 Este 32 Nordeste 0 -- -- 69
2018-08-28 18:00:00 24.9 15 Este 30 Este 0 -- -- 67
2018-08-28 17:00:00 24.8 17 Nordeste 37 Nordeste 0 -- -- 67
2018-08-28 16:00:00 26.9 16 Este 30 Este 0 -- -- 61
2018-08-28 15:00:00 27.6 12 Este 21 Este 0 -- -- 57
2018-08-28 14:00:00 26.8 12 Este 31 Nordeste 0 -- -- 61
2018-08-28 13:00:00 26 13 Nordeste 36 Nordeste 0 -- -- 64
2018-08-28 12:00:00 25.4 18 Nordeste 33 Nordeste 0 -- -- 64
2018-08-28 11:00:00 24.6 21 Nordeste 35 Nordeste 0 -- -- 66
2018-08-28 10:00:00 24.7 12 Este 22 Nordeste 0 -- -- 68
2018-08-28 09:00:00 23.2 8 Sudeste 21 Sudeste 0 -- -- 69
2018-08-28 08:00:00 20.6 11 Sudeste 17 Sudeste 0 -- -- 73
2018-08-28 07:00:00 20.7 10 Sur 19 Sudeste 0 -- -- 72
2018-08-28 06:00:00 21 12 Sur 21 Sudeste 0 -- -- 72
2018-08-28 05:00:00 20.9 6 Sudeste 19 Sudeste 0 -- -- 71
2018-08-28 04:00:00 21.1 10 Sur 24 Sudeste 0 -- -- 73
2018-08-28 03:00:00 21 12 Sudeste 18 Sudeste 0 -- -- 74
2018-08-28 02:00:00 20.9 8 Sudeste 15 Sudeste 0 -- -- 71
2018-08-28 01:00:00 21.6 12 Sudeste 19 Sudeste 0 -- -- 72
2018-08-28 00:00:00 21.9 10 Sudeste 32 Sudeste 0 -- -- 75
2018-08-27 23:00:00 22 13 Sudeste 18 Sudeste 0 -- -- 75
2018-08-27 22:00:00 21.9 9 Sur 14 Sudeste 0 -- -- 73
2018-08-27 21:00:00 22.8 8 Sudeste 22 Sudeste 0 -- -- 73
2018-08-27 20:00:00 23.5 14 Sudeste 23 Sudeste 0 -- -- 66
2018-08-27 19:00:00 23.9 12 Este 23 Nordeste 0 -- -- 70
2018-08-27 18:00:00 24.1 10 Nordeste 24 Nordeste 0 -- -- 72
2018-08-27 17:00:00 24.7 11 Este 28 Nordeste 0 -- -- 70
2018-08-27 16:00:00 24.5 14 Nordeste 31 Nordeste 0 -- -- 70
2018-08-27 15:00:00 24.8 15 Nordeste 32 Nordeste 0 -- -- 69
2018-08-27 14:00:00 24.9 19 Nordeste 37 Nordeste 0 -- -- 67
2018-08-27 13:00:00 25.3 12 Nordeste 31 Nordeste 0 -- -- 66
2018-08-27 12:00:00 25.7 14 Este 24 Nordeste 0 -- -- 66
2018-08-27 11:00:00 24.3 12 Este 19 Nordeste 0 -- -- 69
2018-08-27 10:00:00 25.2 8 Este 16 Este 0 -- -- 64
2018-08-27 09:00:00 22.9 7 Sudeste 18 Sudeste 0 -- -- 72
2018-08-27 08:00:00 20.9 11 Sur 19 Sur 0 -- -- 80
2018-08-27 07:00:00 20.5 10 Sur 15 Sur 0 -- -- 75
2018-08-27 06:00:00 20.8 8 Sudeste 17 Sudeste 0 -- -- 74
2018-08-27 05:00:00 21.7 12 Sudeste 23 Sudeste 0 -- -- 76
2018-08-27 04:00:00 21.5 8 Sudeste 18 Sudeste 0 -- -- 77
2018-08-27 03:00:00 21.7 10 Sudeste 19 Sur 0 -- -- 77
2018-08-27 02:00:00 21.8 10 Sudeste 18 Sudeste 0 -- -- 77
2018-08-27 01:00:00 22.2 6 Sudeste 15 Sudeste 0 -- -- 77
2018-08-27 00:00:00 22.7 6 Este 24 Este 0 -- -- 77
2018-08-26 23:00:00 22.9 8 Este 21 Este 0 -- -- 79
2018-08-26 22:00:00 23.2 14 Este 26 Este 0 -- -- 80
2018-08-26 21:00:00 23.5 10 Este 24 Este 0 -- -- 78
2018-08-26 20:00:00 23.8 10 Este 22 Este 0 -- -- 78
2018-08-26 19:00:00 24.1 9 Sudeste 25 Nordeste 0 -- -- 76
2018-08-26 18:00:00 24.3 13 Este 25 Nordeste 0 -- -- 77
2018-08-26 17:00:00 24.5 9 Este 30 Nordeste 0 -- -- 76
2018-08-26 16:00:00 24.4 11 Nordeste 24 Nordeste 0 -- -- 78
2018-08-26 15:00:00 24.2 17 Nordeste 31 Nordeste 0 -- -- 78
2018-08-26 14:00:00 24.3 12 Nordeste 27 Nordeste 0 -- -- 77
2018-08-26 13:00:00 24.3 15 Nordeste 27 Nordeste 0 -- -- 77
2018-08-26 12:00:00 23.9 19 Nordeste 28 Nordeste 0 -- -- 78
2018-08-26 11:00:00 23.8 15 Nordeste 27 Nordeste 0 -- -- 79
2018-08-26 10:00:00 23.4 13 Nordeste 24 Nordeste 0 -- -- 80
2018-08-26 09:00:00 23.1 14 Nordeste 24 Nordeste 0 -- -- 81
2018-08-26 08:00:00 22.8 13 Nordeste 25 Nordeste 0 -- -- 82
2018-08-26 07:00:00 23 12 Nordeste 20 Este 0 -- -- 83
2018-08-26 06:00:00 23 12 Este 22 Este 0 -- -- 82
2018-08-26 05:00:00 23.1 11 Este 18 Este 0 -- -- 83
2018-08-26 04:00:00 23.2 9 Este 17 Este 0 -- -- 82
2018-08-26 03:00:00 23.3 8 Este 22 Nordeste 0 -- -- 82
2018-08-26 02:00:00 23.5 14 Nordeste 23 Nordeste 0 -- -- 84
2018-08-26 01:00:00 23.7 9 Este 19 Este 0 -- -- 82
2018-08-26 00:00:00 23.7 8 Este 21 Nordeste 0 -- -- 81
2018-08-25 23:00:00 23.9 6 Nordeste 15 Nordeste 0 -- -- 82
2018-08-25 22:00:00 24 6 Este 17 Nordeste 0 -- -- 80
2018-08-25 21:00:00 24.1 8 Este 15 Este 0 -- -- 79
2018-08-25 20:00:00 24.4 8 Este 12 Nordeste 0 -- -- 78
2018-08-25 19:00:00 25 9 Este 13 Este 0 -- -- 76
2018-08-25 18:00:00 25.2 6 Nordeste 12 Este 0 -- -- 74
2018-08-25 17:00:00 25.3 6 Nordeste 11 Nordeste 0 -- -- 74
2018-08-25 16:00:00 26.3 8 Nordeste 14 Nordeste 0 -- -- 70
2018-08-25 15:00:00 26.5 10 Nordeste 20 Nordeste 0 -- -- 70
2018-08-25 14:00:00 27 13 Nordeste 19 Nordeste 0 -- -- 68
2018-08-25 13:00:00 26.5 10 Este 18 Nordeste 0 -- -- 69
2018-08-25 12:00:00 26.2 10 Nordeste 15 Este 0 -- -- 69
2018-08-25 11:00:00 25.3 8 Este 13 Este 0 -- -- 75
2018-08-25 10:00:00 23.5 6 Este 15 Este 0 -- -- 81
2018-08-25 09:00:00 22.6 6 Este 16 Sur 0 -- -- 82
2018-08-25 08:00:00 21.6 10 Sur 15 Sur 0 -- -- 84
2018-08-25 07:00:00 21.8 7 Sur 9 Sur 0 -- -- 86
2018-08-25 06:00:00 21 6 Sur 9 Sudeste 0 -- -- 84
2018-08-25 05:00:00 21.9 6 Sudeste 11 Este 0 -- -- 82
2018-08-25 04:00:00 22.4 7 Sur 17 Sudoeste 0 -- -- 83
2018-08-25 03:00:00 22.1 6 Sur 13 Este 0 -- -- 83
2018-08-25 02:00:00 22.8 5 Este 12 Norte 0 -- -- 82
2018-08-25 01:00:00 23.1 5 Sur 17 Nordeste 0 -- -- 81
2018-08-25 00:00:00 23.3 6 Sudeste 12 Sudeste 0 -- -- 82
2018-08-24 23:00:00 23.8 9 Este 15 Sudeste 0 -- -- 80
2018-08-24 22:00:00 23.9 9 Este 27 Nordeste 0 -- -- 80
2018-08-24 21:00:00 24.1 8 Este 17 Sudeste 0 -- -- 79
2018-08-24 20:00:00 24.2 7 Este 15 Este 0 -- -- 79
2018-08-24 19:00:00 24.7 11 Este 17 Este 0 -- -- 78
2018-08-24 18:00:00 25.3 10 Este 19 Este 0 -- -- 74
2018-08-24 17:00:00 25.9 13 Este 22 Este 0 -- -- 73
2018-08-24 16:00:00 26.5 8 Nordeste 21 Este 0 -- -- 71
2018-08-24 15:00:00 26.5 13 Nordeste 19 Nordeste 0 -- -- 71
2018-08-24 14:00:00 26.3 13 Este 21 Este 0 -- -- 71
2018-08-24 13:00:00 25.2 13 Nordeste 22 Nordeste 0 -- -- 76
2018-08-24 12:00:00 24.4 12 Este 21 Nordeste 0 -- -- 79
2018-08-24 11:00:00 24 10 Nordeste 22 Nordeste 0 -- -- 80
2018-08-24 10:00:00 24.2 10 Nordeste 17 Nordeste 0 -- -- 80
2018-08-24 09:00:00 22.8 5 Este 13 Este 0 -- -- 84
2018-08-24 08:00:00 22.1 4 Sudoeste 8 Sudeste 0 -- -- 84
2018-08-24 07:00:00 22.6 3 Sur 15 Sudoeste 0 -- -- 83
2018-08-24 06:00:00 22.5 5 Sudoeste 20 Oeste 0 -- -- 84
2018-08-24 05:00:00 22.4 6 Noroeste 11 Oeste 0 -- -- 84
2018-08-24 04:00:00 22.7 3 Sudoeste 17 Nordeste 0 -- -- 84
2018-08-24 03:00:00 23 0 Calma 13 Este 0 -- -- 84
2018-08-24 02:00:00 23 3 Nordeste 12 Este 0 -- -- 83
2018-08-24 01:00:00 23 8 Sur 13 Sudeste 0 -- -- 83
2018-08-24 00:00:00 23.1 3 Sudeste 9 Sur 0 -- -- 82